Time,TemperatureF,DewpointF,PressureIn,WindDirection,WindDirectionDegrees,WindSpeedMPH,WindSpeedGustMPH,Humidity,HourlyPrecipIn,Conditions,Clouds,dailyrainin,SoftwareType,DateUTC
2013-03-13 00:11:00,22.3,18.8,30.17,WNW,292,3.2,-999.0,86,-99.99,,,0.00,Acu-Link.com,2013-03-13 05:11:00,
2013-03-13 00:26:00,21.7,18.4,30.17,WNW,292,3.7,-999.0,87,-99.99,,,0.00,Acu-Link.com,2013-03-13 05:26:00,
2013-03-13 00:42:00,22.1,18.6,30.18,NW,315,3.7,-999.0,86,-99.99,,,0.00,Acu-Link.com,2013-03-13 05:42:00,
2013-03-13 01:12:00,22.1,18.3,30.18,WNW,292,4.7,-999.0,85,-99.99,,,0.00,Acu-Link.com,2013-03-13 06:12:00,
2013-03-13 01:27:00,21.7,18.2,30.17,NNW,337,5.3,-999.0,86,-99.99,,,0.00,Acu-Link.com,2013-03-13 06:27:00,
2013-03-13 01:43:00,21.2,18.2,30.17,NW,315,4.7,-999.0,88,-99.99,,,0.00,Acu-Link.com,2013-03-13 06:43:00,
2013-03-13 01:58:00,21.6,18.3,30.18,West,270,6.8,-999.0,87,-99.99,,,0.00,Acu-Link.com,2013-03-13 06:58:00,
2013-03-13 02:13:00,21.6,18.3,30.19,West,270,6.3,-999.0,87,-99.99,,,0.00,Acu-Link.com,2013-03-13 07:13:00,
2013-03-13 02:29:00,22.1,18.6,30.19,WNW,292,6.3,-999.0,86,-99.99,,,0.00,Acu-Link.com,2013-03-13 07:29:00,
2013-03-13 02:44:00,21.2,17.7,30.19,West,270,5.8,-999.0,86,-99.99,,,0.00,Acu-Link.com,2013-03-13 07:44:00,
2013-03-13 02:59:00,21.6,18.1,30.20,West,270,7.3,-999.0,86,-99.99,,,0.00,Acu-Link.com,2013-03-13 07:59:00,
2013-03-13 03:14:00,21.4,17.9,30.20,West,270,5.3,-999.0,86,-99.99,,,0.00,Acu-Link.com,2013-03-13 08:14:00,
2013-03-13 03:29:00,20.8,17.6,30.19,West,270,5.3,-999.0,87,-99.99,,,0.00,Acu-Link.com,2013-03-13 08:29:00,
2013-03-13 03:44:00,20.5,17.3,30.20,West,270,6.3,-999.0,87,-99.99,,,0.00,Acu-Link.com,2013-03-13 08:44:00,
2013-03-13 03:59:00,20.8,17.6,30.20,West,270,8.3,-999.0,87,-99.99,,,0.00,Acu-Link.com,2013-03-13 08:59:00,
2013-03-13 04:14:00,20.8,17.6,30.20,WSW,247,8.9,-999.0,87,-99.99,,,0.00,Acu-Link.com,2013-03-13 09:14:00,
2013-03-13 04:30:00,21.4,18.1,30.20,West,270,6.8,-999.0,87,-99.99,,,0.00,Acu-Link.com,2013-03-13 09:30:00,
2013-03-13 04:45:00,20.1,16.9,30.20,WNW,292,5.8,-999.0,87,-99.99,,,0.00,Acu-Link.com,2013-03-13 09:45:00,
2013-03-13 05:00:00,19.4,16.4,30.21,WNW,292,5.3,-999.0,88,-99.99,,,0.00,Acu-Link.com,2013-03-13 10:00:00,
2013-03-13 05:15:00,19.0,16.0,30.22,WNW,292,2.7,-999.0,88,-99.99,,,0.00,Acu-Link.com,2013-03-13 10:15:00,
2013-03-13 05:30:00,18.7,16.3,30.22,WNW,292,4.2,-999.0,90,-99.99,,,0.00,Acu-Link.com,2013-03-13 10:30:00,
2013-03-13 05:45:00,18.7,16.3,30.23,West,270,4.7,-999.0,90,-99.99,,,0.00,Acu-Link.com,2013-03-13 10:45:00,
2013-03-13 06:00:00,18.5,16.1,30.23,West,270,4.2,-999.0,90,-99.99,,,0.00,Acu-Link.com,2013-03-13 11:00:00,
2013-03-13 06:31:00,17.4,15.2,30.23,WNW,292,2.2,-999.0,91,-99.99,,,0.00,Acu-Link.com,2013-03-13 11:31:00,
2013-03-13 06:46:00,17.6,15.4,30.23,West,270,3.7,-999.0,91,-99.99,,,0.00,Acu-Link.com,2013-03-13 11:46:00,
2013-03-13 07:02:00,17.8,15.4,30.22,NNW,337,2.2,-999.0,90,-99.99,,,0.00,Acu-Link.com,2013-03-13 12:02:00,
2013-03-13 07:17:00,17.2,15.0,30.22,NNW,337,1.1,-999.0,91,-99.99,,,0.00,Acu-Link.com,2013-03-13 12:17:00,
2013-03-13 07:32:00,16.5,14.3,30.23,WNW,292,1.7,-999.0,91,-99.99,,,0.00,Acu-Link.com,2013-03-13 12:32:00,
2013-03-13 07:47:00,16.5,14.6,30.23,North,0,1.7,-999.0,92,-99.99,,,0.00,Acu-Link.com,2013-03-13 12:47:00,
2013-03-13 08:02:00,17.1,14.9,30.22,WNW,292,2.2,-999.0,91,-99.99,,,0.00,Acu-Link.com,2013-03-13 13:02:00,
2013-03-13 08:18:00,17.2,15.0,30.24,WNW,292,2.2,-999.0,91,-99.99,,,0.00,Acu-Link.com,2013-03-13 13:18:00,
2013-03-13 08:48:00,21.0,17.2,30.24,NE,45,1.7,-999.0,85,-99.99,,,0.00,Acu-Link.com,2013-03-13 13:48:00,
2013-03-13 09:03:00,23.7,18.7,30.25,NNW,337,1.7,-999.0,81,-99.99,,,0.00,Acu-Link.com,2013-03-13 14:03:00,
2013-03-13 09:18:00,24.4,18.8,30.26,West,270,2.2,-999.0,79,-99.99,,,0.00,Acu-Link.com,2013-03-13 14:18:00,
2013-03-13 09:33:00,24.8,18.9,30.26,NE,45,1.7,-999.0,78,-99.99,,,0.00,Acu-Link.com,2013-03-13 14:33:00,
2013-03-13 09:48:00,23.4,18.7,30.27,SW,225,2.2,-999.0,82,-99.99,,,0.00,Acu-Link.com,2013-03-13 14:48:00,
2013-03-13 10:03:00,24.3,19.3,30.28,West,270,3.2,-999.0,81,-99.99,,,0.00,Acu-Link.com,2013-03-13 15:03:00,
2013-03-13 10:18:00,25.0,19.4,30.29,West,270,4.7,-999.0,79,-99.99,,,0.00,Acu-Link.com,2013-03-13 15:18:00,
2013-03-13 10:34:00,26.8,20.0,30.29,West,270,5.8,-999.0,75,-99.99,,,0.00,Acu-Link.com,2013-03-13 15:34:00,
2013-03-13 10:49:00,26.6,19.5,30.29,West,270,5.3,-999.0,74,-99.99,,,0.00,Acu-Link.com,2013-03-13 15:49:00,
2013-03-13 11:04:00,28.0,20.8,30.29,NW,315,3.2,-999.0,74,-99.99,,,0.00,Acu-Link.com,2013-03-13 16:04:00,
2013-03-13 11:19:00,28.8,20.6,30.30,West,270,4.7,-999.0,71,-99.99,,,0.00,Acu-Link.com,2013-03-13 16:19:00,
2013-03-13 11:34:00,28.9,20.4,30.29,West,270,1.7,-999.0,70,-99.99,,,0.00,Acu-Link.com,2013-03-13 16:34:00,
2013-03-13 11:49:00,31.1,21.4,30.29,ENE,67,0.0,-999.0,67,-99.99,,,0.00,Acu-Link.com,2013-03-13 16:49:00,
2013-03-13 12:04:00,33.6,21.6,30.28,WSW,247,3.7,-999.0,61,-99.99,,,0.00,Acu-Link.com,2013-03-13 17:04:00,
2013-03-13 12:19:00,32.7,21.5,30.27,ESE,112,4.7,-999.0,63,-99.99,,,0.00,Acu-Link.com,2013-03-13 17:19:00,
2013-03-13 12:34:00,32.0,21.9,30.27,ESE,112,4.7,-999.0,66,-99.99,,,0.00,Acu-Link.com,2013-03-13 17:34:00,
2013-03-13 12:50:00,31.6,22.3,30.27,WNW,292,2.7,-999.0,68,-99.99,,,0.00,Acu-Link.com,2013-03-13 17:50:00,
2013-03-13 13:05:00,32.7,22.3,30.27,East,90,3.2,-999.0,65,-99.99,,,0.00,Acu-Link.com,2013-03-13 18:05:00,
2013-03-13 13:21:00,33.3,22.8,30.27,SSE,157,2.7,-999.0,65,-99.99,,,0.00,Acu-Link.com,2013-03-13 18:21:00,
2013-03-13 14:07:00,34.2,23.7,30.24,ESE,112,5.3,-999.0,65,-99.99,,,0.00,Acu-Link.com,2013-03-13 19:07:00,
2013-03-13 14:22:00,34.9,24.0,30.22,South,180,4.2,-999.0,64,-99.99,,,0.00,Acu-Link.com,2013-03-13 19:22:00,
2013-03-13 14:37:00,35.2,24.3,30.22,ESE,112,5.3,-999.0,64,-99.99,,,0.00,Acu-Link.com,2013-03-13 19:37:00,
2013-03-13 14:52:00,35.2,24.3,30.22,ESE,112,5.3,-999.0,64,-99.99,,,0.00,Acu-Link.com,2013-03-13 19:52:00,
2013-03-13 15:07:00,37.6,25.4,30.21,SE,135,7.3,-999.0,61,-99.99,,,0.00,Acu-Link.com,2013-03-13 20:07:00,
2013-03-13 15:22:00,37.9,24.9,30.20,SE,135,5.3,-999.0,59,-99.99,,,0.00,Acu-Link.com,2013-03-13 20:22:00,
2013-03-13 15:37:00,38.7,26.0,30.19,ESE,112,8.3,-999.0,60,-99.99,,,0.00,Acu-Link.com,2013-03-13 20:37:00,
2013-03-13 15:53:00,39.6,25.6,30.19,ESE,112,7.3,-999.0,57,-99.99,,,0.00,Acu-Link.com,2013-03-13 20:53:00,
2013-03-13 16:08:00,39.9,26.8,30.18,ESE,112,10.4,-999.0,59,-99.99,,,0.00,Acu-Link.com,2013-03-13 21:08:00,
2013-03-13 16:23:00,40.3,26.7,30.19,ESE,112,8.9,-999.0,58,-99.99,,,0.00,Acu-Link.com,2013-03-13 21:23:00,
2013-03-13 16:38:00,41.5,27.0,30.17,SE,135,6.8,-999.0,56,-99.99,,,0.00,Acu-Link.com,2013-03-13 21:38:00,
2013-03-13 16:53:00,41.2,26.3,30.18,SSE,157,7.8,-999.0,55,-99.99,,,0.00,Acu-Link.com,2013-03-13 21:53:00,
2013-03-13 17:08:00,41.0,26.1,30.16,SSE,157,7.8,-999.0,55,-99.99,,,0.00,Acu-Link.com,2013-03-13 22:08:00,
2013-03-13 17:23:00,41.2,26.3,30.16,ESE,112,7.8,-999.0,55,-99.99,,,0.00,Acu-Link.com,2013-03-13 22:23:00,
2013-03-13 17:38:00,41.5,25.7,30.15,SE,135,8.3,-999.0,53,-99.99,,,0.00,Acu-Link.com,2013-03-13 22:38:00,
2013-03-13 17:53:00,41.7,26.3,30.15,ESE,112,7.8,-999.0,54,-99.99,,,0.00,Acu-Link.com,2013-03-13 22:53:00,
2013-03-13 18:08:00,41.4,26.5,30.14,ESE,112,7.3,-999.0,55,-99.99,,,0.00,Acu-Link.com,2013-03-13 23:08:00,
2013-03-13 18:23:00,41.4,26.9,30.12,SE,135,9.4,-999.0,56,-99.99,,,0.00,Acu-Link.com,2013-03-13 23:23:00,
2013-03-13 18:38:00,41.2,26.7,30.12,SSE,157,8.3,-999.0,56,-99.99,,,0.00,Acu-Link.com,2013-03-13 23:38:00,
2013-03-13 18:53:00,40.3,25.4,30.11,SSE,157,6.3,-999.0,55,-99.99,,,0.00,Acu-Link.com,2013-03-13 23:53:00,
2013-03-13 19:08:00,39.2,25.7,30.11,ESE,112,4.7,-999.0,58,-99.99,,,0.00,Acu-Link.com,2013-03-14 00:08:00,
2013-03-13 19:23:00,36.3,26.4,30.11,ESE,112,4.7,-999.0,67,-99.99,,,0.00,Acu-Link.com,2013-03-14 00:23:00,
2013-03-13 19:38:00,35.2,26.1,30.12,ESE,112,5.8,-999.0,69,-99.99,,,0.00,Acu-Link.com,2013-03-14 00:38:00,
2013-03-13 19:54:00,34.5,25.7,30.12,ESE,112,5.8,-999.0,70,-99.99,,,0.00,Acu-Link.com,2013-03-14 00:54:00,
2013-03-13 20:09:00,33.4,25.4,30.11,ESE,112,5.3,-999.0,72,-99.99,,,0.00,Acu-Link.com,2013-03-14 01:09:00,
2013-03-13 20:24:00,33.3,25.3,30.11,ESE,112,5.8,-999.0,72,-99.99,,,0.00,Acu-Link.com,2013-03-14 01:24:00,
2013-03-13 20:39:00,33.4,25.4,30.11,SE,135,8.9,-999.0,72,-99.99,,,0.00,Acu-Link.com,2013-03-14 01:39:00,
2013-03-13 20:54:00,32.9,25.5,30.10,ESE,112,6.8,-999.0,74,-99.99,,,0.00,Acu-Link.com,2013-03-14 01:54:00,
2013-03-13 21:09:00,32.5,25.2,30.09,ESE,112,6.8,-999.0,74,-99.99,,,0.00,Acu-Link.com,2013-03-14 02:09:00,
2013-03-13 21:24:00,32.2,25.2,30.09,ESE,112,5.3,-999.0,75,-99.99,,,0.00,Acu-Link.com,2013-03-14 02:24:00,
2013-03-13 21:40:00,32.0,25.0,30.09,ESE,112,4.7,-999.0,75,-99.99,,,0.00,Acu-Link.com,2013-03-14 02:40:00,
2013-03-13 21:55:00,31.5,24.5,30.10,ESE,112,4.7,-999.0,75,-99.99,,,0.00,Acu-Link.com,2013-03-14 02:55:00,
2013-03-13 22:10:00,30.9,24.6,30.10,ESE,112,5.3,-999.0,77,-99.99,,,0.00,Acu-Link.com,2013-03-14 03:10:00,
2013-03-13 22:25:00,30.4,24.7,30.10,ESE,112,5.8,-999.0,79,-99.99,,,0.00,Acu-Link.com,2013-03-14 03:25:00,
2013-03-13 22:40:00,30.4,24.4,30.10,ESE,112,5.8,-999.0,78,-99.99,,,0.00,Acu-Link.com,2013-03-14 03:40:00,
2013-03-13 22:55:00,30.4,24.4,30.10,SE,135,5.3,-999.0,78,-99.99,,,0.00,Acu-Link.com,2013-03-14 03:55:00,
2013-03-13 23:10:00,30.2,24.5,30.08,ESE,112,5.8,-999.0,79,-99.99,,,0.00,Acu-Link.com,2013-03-14 04:10:00,
2013-03-13 23:26:00,30.2,24.2,30.09,ESE,112,5.3,-999.0,78,-99.99,,,0.00,Acu-Link.com,2013-03-14 04:26:00,
2013-03-13 23:41:00,30.2,24.2,30.09,SE,135,5.8,-999.0,78,-99.99,,,0.00,Acu-Link.com,2013-03-14 04:41:00,
2013-03-13 23:56:00,30.4,24.1,30.09,SSE,157,5.8,-999.0,77,-99.99,,,0.00,Acu-Link.com,2013-03-14 04:56:00,